Location: La Tine
(46.4708°N, 7.0525°E)
Time: 02:02:41
(UTC+00:00)

USA 234 - Pass Details

Date: 18 September 2020
Orbit: 1102 x 1106 km, 123.0° (Epoch: 16 October)

Event Time Altitude Azimuth Distance (km) Brightness Sun altitude
Rises 18:34:13 0° 57° (ENE) 3,927 5.8 -10.6°
Reaches altitude 10° 18:37:02 10° 67° (ENE) 2,966 5.1 -11.1°
Maximum altitude 18:42:46 32° 128° (SE) 1,807 3.9 -12.0°
Drops below altitude 10° 18:48:28 10° 189° (S) 2,955 5.4 -13.0°
Sets 18:51:15 0° 199° (SSW) 3,910 6.2 -13.5°
